SCP
0 0 0 0 0 0 0 0 0 0 0 0 0 0 0 0 0 0 0 0 0 0 0 0 0 0 0 0 0 0 0 0 0 0 0 0 0 0 0 0 0 0 0 0
0 0 0 0 0 0 0 0 0 0 0 0 0 0 0 0 0 0 0 0 0 0 0 0 0 0 0 0 0 0 0 0 0 0 0 0 0 0 0 0 0 0 0 0
0 -0 0 0 0 0 0 0 0 0 0 0 0 0 0 0 0 0 0 0 0 0 0 0 0 0 0 0 0 0 0 0 0 0 0 0 0 0 0 0 0 0 0 0
0 0 0 0 0 0 0 0 0 0 0 0 0 0 0 0 0 0 0 0 0 0 0 0 0 0 0 0 0 0 0 0 0 0 0 0 0 0 0 0 0 0 0 0
0 0 0 0 0 0 0 0 0 0 0 0 0 0 -0 0 0 0 0 0 0 0 0 0 0 0 0 0 0 0 0 0 0 0 0 0 0 0 0 0 0 0 0 0
0 0 0 0 0 0 0 0 0 0 0 0 0 0 -0 0 0 0 0 0 0 0 0 0 0 0 0 0 0 0 0 0 0 0 0 0 0 0 0 0 0 0 0 0
0 0 0 0 0 0 0 0 0 0 0 0 0 0 0 0 0 0 0 0 0 0 0 0 0 0 0 0 0 0 0 0 0 0 0 0 0 0 0 0 0 0 0 0
0 0 0 0 0 0 0 0 0 0 0 0 0 0 0 0 0 -0 0 0 0 0 0 0 0 0 0 0 0 0 0 0 0 0 0 0 0 0 0 0 0 0 0 0
0 0 0 0 0 0 0 0 0 0 0 0 0 0 0 0 0 0 0 0 0 0 0 0 0 0 0 0 0 0 0 0 0 0 0 0 0 0 0 0 0 0 0 0
0 0 0 0 0 0 0 0 0 0 0 0 0 0 0 0 0 0 0 0 0 0 0 0 0 0 0 0 0 0 0 0 0 0 0 0 0 0 0 0 0 0 0 0
0 0 0 0 0 0 0 0 0 0 0 0 0 0 0 0 0 0 0 0 0 0 0 0 0 0 0 0 0 0 0 0 0 0 0 0 0 0 0 0 0 0 0 0
0 0 0 0 0 0 0 0 0 0 0 0 0 0 0 0 0 0 0 0 0 0 0 0 0 0 0 0 0 0 0 0 0 0 0 0 0 0 0 0 0 0 0 0
0 0 0 0 0 0 0 0 0 0 0 0 0 0 0 0 0 0 0 0 0 0 0 0 0 0 0 0 0 0 0 0 0 0 0 0 0 0 0 0 0 0 0 0
0 0 0 0 0 0 0 0 0 0 0 0 0 0 0 0 0 0 0 0 0 0 0 0 0 0 0 0 0 0 0 0 0 0 0 0 0 0 0 0 0 0 0 0
0 0 0 0 0 0 0 0 0 0 0 0 0 0 0 0 0 0 0 0 -0 0 0 0 0 0 0 0 0 0 0 0 0 0 0 0 0 0 0 0 0 0 0 0
0 0 0 0 0 0 0 0 0 0 0 0 0 0 0 0 0 0 0 0 0 0 0 0 0 0 0 0 0 0 0 0 0 0 0 0 0 0 0 0 0 0 0 0
0 0 0 0 0 0 0 0 0 0 0 0 0 0 0 0 0 0 0 0 0 0 0 0 0 0 0 0 0 0 0 0 0 0 0 0 0 0 0 0 0 0 0 0
0 0 0 0 0 0 0 0 0 0 0 0 0 0 0 0 0 0 0 0 0 0 0 0 0 0 0 0 0 0 0 0 0 0 0 0 0 0 0 0 0 0 0 0
0 0 0 0 0 0 0 0 0 0 0 0 0 0 0 0 0 0 0 0 0 0 0 0 0 0 0 0 0 0 0 0 0 0 0 0 0 0 0 0 0 0 0 0
0 0 0 0 0 0 0 0 0 0 0 0 0 0 0 0 0 0 0 0 0 0 0 0 0 0 0 0 0 0 0 0 0 0 0 0 0 0 0 0 0 0 0 0
0 0 0 0 0 0 0 0 0 0 0 0 0 0 0 0 0 0 0 0 0 0 0 0 0 0 0 0 0 0 0 0 0 0 0 0 0 0 0 0 0 0 0 0
0 0 0 0 0 0 0 0 0 0 0 0 0 0 0 0 0 0 0 0 0 0 0 0 0 0 0 0 0 0 0 0 0 0 0 0 0 0 0 0 0 0 0 0
0 0 0 0 0 0 0 0 0 0 0 0 0 0 0 0 0 0 0 0 0 0 0 0 0 0 0 0 0 0 0 0 0 0 0 0 0 0 0 0 0 0 0 0
0 0 0 0 0 0 0 0 0 0 0 0 0 0 0 0 0 0 0 0 0 0 0 0 0 0 0 0 0 0 0 0 0 0 0 0 0 0 0 0 0 0 0 0
0 0 0 0 0 0 0 0 0 0 0 0 0 0 0 0 0 0 0 0 0 0 0 0 0 0 0 0 0 0 0 0 0 0 0 0 0 0 0 0 0 0 0 0
0 0 0 0 0 0 0 0 0 0 0 0 0 0 0 0 0 0 0 0 0 0 0 0 0 0 0 0 0 0 0 0 0 0 0 0 0 0 0 0 0 0 0 0
Wind_Speed_500mb
35 10 24 43 46 31 25 36 33 28 20 18 36 33 23 39 33 36 43 46 56 59 57 57 57 60 57 61 58 74 66 64 62 63 62 59 57 53 50 47 43 43 40 40
11 37 43 37 48 48 33 35 34 6 28 17 19 32 27 25 36 50 48 49 57 56 51 55 60 68 69 67 61 66 64 63 67 68 64 59 58 53 43 46 47 44 44 39
29 24 39 36 49 47 35 38 29 17 12 2 6 13 16 20 47 49 54 60 59 68 64 64 62 67 71 70 65 67 64 63 65 65 63 59 55 55 50 54 50 46 43 40
13 14 15 41 48 50 34 29 17 23 13 7 16 10 20 40 33 25 57 64 58 67 60 63 64 65 70 71 67 65 67 68 67 65 67 67 67 63 59 57 55 50 46 47
20 28 27 34 57 45 22 18 17 11 6 8 14 4 11 18 33 37 46 59 66 65 67 68 71 69 66 66 69 70 71 72 72 68 69 69 69 61 56 53 52 53 52 51
10 13 2 19 25 36 26 27 22 8 5 9 17 15 9 9 17 36 39 63 74 72 68 70 74 72 69 68 68 72 75 75 75 74 73 75 71 66 58 59 56 55 54 48
5 9 4 9 11 8 21 37 8 6 7 12 1 17 18 12 9 13 18 51 77 75 70 70 71 76 73 72 71 73 74 75 77 79 80 79 77 72 68 61 60 56 57 54
19 7 21 11 20 19 32 18 13 15 11 8 6 13 11 24 36 34 41 18 14 39 66 69 72 70 71 69 70 72 75 75 77 81 84 81 78 75 72 65 64 64 63 59
23 14 19 17 33 22 15 12 9 14 2 7 10 11 16 19 12 15 16 19 28 29 27 43 42 56 61 63 66 69 73 74 78 80 80 80 77 74 73 71 66 68 66 62
21 15 21 15 32 36 23 15 6 1 9 6 5 7 10 6 8 16 13 24 28 31 33 35 39 49 61 64 64 63 66 74 78 80 83 80 75 71 69 67 69 67 64 60
29 11 12 22 19 39 13 15 6 9 7 8 6 11 7 10 7 8 6 2 11 17 20 32 36 37 37 40 40 43 49 59 66 72 77 75 70 68 66 66 68 66 65 60
9 10 24 45 11 6 21 19 16 10 10 2 5 8 4 14 10 6 4 5 7 12 21 29 33 33 33 32 33 33 37 43 50 55 58 59 57 57 58 59 62 61 59 60
22 10 14 13 6 1 20 19 40 12 8 15 11 9 6 10 5 6 8 7 13 12 16 19 19 20 20 20 19 20 23 28 33 38 43 46 49 50 50 52 54 54 55 57
17 9 23 29 60 14 24 34 31 18 7 12 17 11 8 10 13 12 17 17 17 16 17 19 19 17 15 14 14 15 15 18 25 31 35 39 41 44 46 48 51 56 58 58
11 9 8 6 27 20 29 32 22 39 27 19 17 11 14 15 16 23 26 19 18 22 26 21 18 14 8 5 7 10 13 17 21 27 34 35 38 40 44 45 45 46 47 46
11 10 10 9 2 19 29 35 39 38 42 33 18 23 14 17 20 23 21 10 13 19 18 15 11 7 4 2 7 13 16 20 24 28 30 31 33 34 36 37 37 40 42 45
24 14 9 2 5 18 6 52 53 45 38 45 29 14 13 14 17 28 23 18 11 10 17 13 7 7 10 11 14 19 21 24 28 30 30 32 31 33 33 34 36 39 41 41
12 16 7 8 7 7 12 36 35 41 45 41 27 24 16 25 37 26 22 21 20 18 20 25 23 15 16 16 17 20 23 24 25 29 33 34 35 36 38 39 41 41 42 43
11 8 10 9 5 7 7 11 31 29 35 32 40 29 15 22 22 18 31 31 28 24 24 23 23 24 27 26 24 23 26 28 29 32 38 42 42 41 42 43 41 42 42 42
14 19 9 7 14 28 6 19 42 13 29 26 33 26 25 32 14 10 38 32 28 21 19 21 22 23 25 27 31 35 40 42 43 44 43 44 43 43 41 39 40 41 42 44
20 14 18 12 7 12 13 17 55 20 11 18 61 59 53 24 26 36 31 22 15 14 11 9 8 9 11 14 17 22 27 29 31 34 38 38 39 38 37 38 40 40 42 45
19 23 16 10 10 21 11 19 31 12 11 14 35 48 39 31 37 34 27 22 17 12 9 7 6 4 2 4 7 10 11 12 14 18 22 23 25 28 31 35 37 39 41 43
12 18 20 24 12 4 41 16 24 32 32 22 34 31 39 47 38 32 27 22 20 19 19 19 15 15 14 13 9 6 4 3 4 6 9 12 15 18 21 24 28 34 38 42
5 7 9 12 2 14 28 24 18 27 38 34 35 41 44 50 43 40 36 32 29 26 25 23 21 19 19 18 16 15 14 12 10 8 9 10 13 15 17 19 22 27 32 39
5 13 13 7 7 14 9 22 36 38 42 44 40 44 48 51 48 45 41 34 31 29 26 23 22 23 22 20 17 17 15 15 14 15 15 15 15 18 20 22 24 27 30 34
11 7 8 7 6 2 10 24 35 46 46 45 48 53 50 46 51 45 43 36 32 31 29 26 25 24 24 20 18 16 16 15 17 19 20 21 22 25 26 26 26 26 26 29
Wind_Direction_500mb
185 219 249 232 220 219 182 184 186 210 179 164 219 233 222 235 205 221 223 219 209 212 222 215 211 214 215 219 215 212 215 214 213 219 219 221 223 229 230 230 228 228 245 239
142 198 216 261 232 235 173 189 210 83 156 176 206 236 234 225 209 211 215 223 214 217 210 219 216 211 213 217 214 211 215 214 217 222 226 225 227 236 235 237 237 232 240 241
180 205 191 248 250 220 212 195 194 151 142 305 20 270 246 238 225 213 209 218 218 218 209 212 214 214 210 216 216 213 212 216 219 222 224 227 229 236 231 234 238 238 243 243
205 222 162 219 249 215 202 189 172 132 124 204 155 275 218 226 220 214 209 214 220 217 212 209 214 217 219 219 217 217 215 217 223 222 226 230 232 234 237 237 242 243 242 246
181 179 202 229 229 227 173 120 120 131 157 27 192 248 245 216 209 214 222 209 216 219 213 207 212 222 225 220 218 220 217 217 222 226 230 233 235 237 241 240 242 245 245 245
107 87 106 223 270 226 146 100 78 77 143 258 206 184 245 203 203 213 219 217 222 221 217 216 215 225 224 224 221 221 221 224 225 228 231 234 239 240 234 240 242 242 245 244
97 74 260 241 295 316 162 124 111 166 207 226 20 200 232 249 225 215 211 214 223 222 221 218 218 218 224 222 224 226 227 229 228 230 234 237 240 243 245 246 244 242 244 244
152 174 173 195 213 184 200 139 140 171 187 187 348 230 239 226 252 269 255 232 225 195 219 223 221 221 225 227 225 228 230 231 231 234 236 238 240 240 246 245 243 245 248 251
169 177 151 174 223 191 220 201 100 106 351 82 203 257 302 263 231 223 217 210 232 229 204 199 193 210 223 230 233 231 232 235 235 237 237 238 239 239 241 244 241 242 249 248
159 108 164 161 223 243 221 149 106 348 134 189 238 260 229 56 202 196 213 217 233 243 235 229 224 222 224 231 235 236 234 234 235 231 235 237 238 239 240 238 238 236 239 239
125 102 141 139 225 188 188 191 174 130 157 158 159 255 184 119 113 132 104 158 227 223 225 218 226 222 216 218 228 235 237 235 232 232 234 238 240 242 241 240 241 240 240 238
125 110 154 195 184 315 211 193 155 151 218 89 138 273 132 130 124 139 141 128 161 182 193 203 220 229 222 218 223 231 231 229 227 229 232 236 238 239 243 245 246 245 241 243
163 156 119 123 343 351 218 201 194 104 122 193 136 248 134 162 196 179 140 115 138 142 160 187 201 206 204 208 213 217 218 220 223 226 227 230 235 240 244 248 249 250 248 249
98 149 180 189 200 118 187 199 197 200 149 157 196 148 180 219 152 153 124 123 130 131 139 140 144 152 167 174 189 201 210 217 220 228 233 237 241 246 249 250 250 250 252 251
104 119 121 359 169 174 180 187 184 207 202 193 152 214 200 190 166 155 129 113 127 133 132 122 121 122 131 173 207 212 218 227 227 237 245 247 249 250 252 254 252 251 249 246
171 160 118 26 55 154 174 182 192 218 210 223 152 197 276 181 168 169 173 127 130 142 141 111 110 132 92 354 267 246 245 251 249 246 247 249 249 249 251 252 252 251 250 247
151 129 121 108 74 88 348 196 194 209 205 206 203 171 178 209 189 190 187 195 200 174 209 219 227 263 249 263 252 245 248 252 258 254 247 245 247 248 250 248 249 247 244 242
114 127 88 150 131 184 243 189 200 206 213 209 216 189 190 210 231 234 233 218 209 250 248 245 258 246 229 245 250 246 246 253 263 255 250 252 253 253 252 250 249 246 245 241
98 86 75 125 236 302 267 225 186 179 229 212 217 213 214 193 199 235 239 252 253 239 237 242 247 246 249 248 246 250 257 262 264 263 259 258 258 258 259 258 256 253 252 247
89 88 93 148 172 214 191 193 175 87 256 196 201 199 191 160 196 224 228 230 223 227 231 238 248 261 267 266 263 258 254 252 253 255 255 257 259 262 266 270 269 266 255 253
160 161 180 186 215 273 228 169 137 160 262 198 192 196 188 190 214 192 200 190 185 186 195 217 224 225 232 238 244 248 252 256 260 264 265 264 265 265 263 259 262 264 258 256
160 156 188 195 214 248 158 155 168 186 151 169 183 186 175 168 154 152 159 158 160 165 162 177 201 202 256 261 245 245 250 261 269 275 275 276 277 279 276 269 264 260 261 261
166 181 165 190 189 241 161 167 197 183 151 143 157 168 181 159 154 163 158 153 144 136 127 115 108 98 91 83 78 77 83 28 343 317 307 304 301 298 292 283 274 267 265 264
269 152 143 105 228 152 165 133 150 161 154 148 152 157 168 161 158 149 145 137 135 125 121 115 110 100 89 82 76 69 62 49 35 21 4 347 333 319 307 295 285 279 276 273
192 139 144 79 20 84 117 156 156 141 146 144 149 152 154 155 145 145 140 138 135 130 123 119 109 97 84 73 63 59 50 41 24 13 4 355 352 336 325 312 306 301 291 278
357 35 180 164 347 244 124 157 157 147 141 143 154 142 141 149 144 145 137 134 131 128 121 116 106 97 87 72 57 46 38 28 17 6 3 357 353 348 342 335 330 317 301 289
Wind_Speed_850mb
35 10 24 43 46 31 25 36 33 28 20 18 36 33 23 39 33 36 43 46 56 59 57 57 57 60 57 61 58 74 66 64 62 63 62 59 57 53 50 47 43 43 40 40
11 37 43 37 48 48 33 35 34 6 28 17 19 32 27 25 36 50 48 49 57 56 51 55 60 68 69 67 61 66 64 63 67 68 64 59 58 53 43 46 47 44 44 39
29 24 39 36 49 47 35 38 29 17 12 2 6 13 16 20 47 49 54 60 59 68 64 64 62 67 71 70 65 67 64 63 65 65 63 59 55 55 50 54 50 46 43 40
13 14 15 41 48 50 34 29 17 23 13 7 16 10 20 40 33 25 57 64 58 67 60 63 64 65 70 71 67 65 67 68 67 65 67 67 67 63 59 57 55 50 46 47
20 28 27 34 57 45 22 18 17 11 6 8 14 4 11 18 33 37 46 59 66 65 67 68 71 69 66 66 69 70 71 72 72 68 69 69 69 61 56 53 52 53 52 51
10 13 2 19 25 36 26 27 22 8 5 9 17 15 9 9 17 36 39 63 74 72 68 70 74 72 69 68 68 72 75 75 75 74 73 75 71 66 58 59 56 55 54 48
5 9 4 9 11 8 21 37 8 6 7 12 1 17 18 12 9 13 18 51 77 75 70 70 71 76 73 72 71 73 74 75 77 79 80 79 77 72 68 61 60 56 57 54
19 7 21 11 20 19 32 18 13 15 11 8 6 13 11 24 36 34 41 18 14 39 66 69 72 70 71 69 70 72 75 75 77 81 84 81 78 75 72 65 64 64 63 59
23 14 19 17 33 22 15 12 9 14 2 7 10 11 16 19 12 15 16 19 28 29 27 43 42 56 61 63 66 69 73 74 78 80 80 80 77 74 73 71 66 68 66 62
21 15 21 15 32 36 23 15 6 1 9 6 5 7 10 6 8 16 13 24 28 31 33 35 39 49 61 64 64 63 66 74 78 80 83 80 75 71 69 67 69 67 64 60
29 11 12 22 19 39 13 15 6 9 7 8 6 11 7 10 7 8 6 2 11 17 20 32 36 37 37 40 40 43 49 59 66 72 77 75 70 68 66 66 68 66 65 60
9 10 24 45 11 6 21 19 16 10 10 2 5 8 4 14 10 6 4 5 7 12 21 29 33 33 33 32 33 33 37 43 50 55 58 59 57 57 58 59 62 61 59 60
22 10 14 13 6 1 20 19 40 12 8 15 11 9 6 10 5 6 8 7 13 12 16 19 19 20 20 20 19 20 23 28 33 38 43 46 49 50 50 52 54 54 55 57
17 9 23 29 60 14 24 34 31 18 7 12 17 11 8 10 13 12 17 17 17 16 17 19 19 17 15 14 14 15 15 18 25 31 35 39 41 44 46 48 51 56 58 58
11 9 8 6 27 20 29 32 22 39 27 19 17 11 14 15 16 23 26 19 18 22 26 21 18 14 8 5 7 10 13 17 21 27 34 35 38 40 44 45 45 46 47 46
11 10 10 9 2 19 29 35 39 38 42 33 18 23 14 17 20 23 21 10 13 19 18 15 11 7 4 2 7 13 16 20 24 28 30 31 33 34 36 37 37 40 42 45
24 14 9 2 5 18 6 52 53 45 38 45 29 14 13 14 17 28 23 18 11 10 17 13 7 7 10 11 14 19 21 24 28 30 30 32 31 33 33 34 36 39 41 41
12 16 7 8 7 7 12 36 35 41 45 41 27 24 16 25 37 26 22 21 20 18 20 25 23 15 16 16 17 20 23 24 25 29 33 34 35 36 38 39 41 41 42 43
11 8 10 9 5 7 7 11 31 29 35 32 40 29 15 22 22 18 31 31 28 24 24 23 23 24 27 26 24 23 26 28 29 32 38 42 42 41 42 43 41 42 42 42
14 19 9 7 14 28 6 19 42 13 29 26 33 26 25 32 14 10 38 32 28 21 19 21 22 23 25 27 31 35 40 42 43 44 43 44 43 43 41 39 40 41 42 44
20 14 18 12 7 12 13 17 55 20 11 18 61 59 53 24 26 36 31 22 15 14 11 9 8 9 11 14 17 22 27 29 31 34 38 38 39 38 37 38 40 40 42 45
19 23 16 10 10 21 11 19 31 12 11 14 35 48 39 31 37 34 27 22 17 12 9 7 6 4 2 4 7 10 11 12 14 18 22 23 25 28 31 35 37 39 41 43
12 18 20 24 12 4 41 16 24 32 32 22 34 31 39 47 38 32 27 22 20 19 19 19 15 15 14 13 9 6 4 3 4 6 9 12 15 18 21 24 28 34 38 42
5 7 9 12 2 14 28 24 18 27 38 34 35 41 44 50 43 40 36 32 29 26 25 23 21 19 19 18 16 15 14 12 10 8 9 10 13 15 17 19 22 27 32 39
5 13 13 7 7 14 9 22 36 38 42 44 40 44 48 51 48 45 41 34 31 29 26 23 22 23 22 20 17 17 15 15 14 15 15 15 15 18 20 22 24 27 30 34
11 7 8 7 6 2 10 24 35 46 46 45 48 53 50 46 51 45 43 36 32 31 29 26 25 24 24 20 18 16 16 15 17 19 20 21 22 25 26 26 26 26 26 29
Wind_Direction_850mb
185 219 249 232 220 219 182 184 186 210 179 164 219 233 222 235 205 221 223 219 209 212 222 215 211 214 215 219 215 212 215 214 213 219 219 221 223 229 230 230 228 228 245 239
142 198 216 261 232 235 173 189 210 83 156 176 206 236 234 225 209 211 215 223 214 217 210 219 216 211 213 217 214 211 215 214 217 222 226 225 227 236 235 237 237 232 240 241
180 205 191 248 250 220 212 195 194 151 142 305 20 270 246 238 225 213 209 218 218 218 209 212 214 214 210 216 216 213 212 216 219 222 224 227 229 236 231 234 238 238 243 243
205 222 162 219 249 215 202 189 172 132 124 204 155 275 218 226 220 214 209 214 220 217 212 209 214 217 219 219 217 217 215 217 223 222 226 230 232 234 237 237 242 243 242 246
181 179 202 229 229 227 173 120 120 131 157 27 192 248 245 216 209 214 222 209 216 219 213 207 212 222 225 220 218 220 217 217 222 226 230 233 235 237 241 240 242 245 245 245
107 87 106 223 270 226 146 100 78 77 143 258 206 184 245 203 203 213 219 217 222 221 217 216 215 225 224 224 221 221 221 224 225 228 231 234 239 240 234 240 242 242 245 244
97 74 260 241 295 316 162 124 111 166 207 226 20 200 232 249 225 215 211 214 223 222 221 218 218 218 224 222 224 226 227 229 228 230 234 237 240 243 245 246 244 242 244 244
152 174 173 195 213 184 200 139 140 171 187 187 348 230 239 226 252 269 255 232 225 195 219 223 221 221 225 227 225 228 230 231 231 234 236 238 240 240 246 245 243 245 248 251
169 177 151 174 223 191 220 201 100 106 351 82 203 257 302 263 231 223 217 210 232 229 204 199 193 210 223 230 233 231 232 235 235 237 237 238 239 239 241 244 241 242 249 248
159 108 164 161 223 243 221 149 106 348 134 189 238 260 229 56 202 196 213 217 233 243 235 229 224 222 224 231 235 236 234 234 235 231 235 237 238 239 240 238 238 236 239 239
125 102 141 139 225 188 188 191 174 130 157 158 159 255 184 119 113 132 104 158 227 223 225 218 226 222 216 218 228 235 237 235 232 232 234 238 240 242 241 240 241 240 240 238
125 110 154 195 184 315 211 193 155 151 218 89 138 273 132 130 124 139 141 128 161 182 193 203 220 229 222 218 223 231 231 229 227 229 232 236 238 239 243 245 246 245 241 243
163 156 119 123 343 351 218 201 194 104 122 193 136 248 134 162 196 179 140 115 138 142 160 187 201 206 204 208 213 217 218 220 223 226 227 230 235 240 244 248 249 250 248 249
98 149 180 189 200 118 187 199 197 200 149 157 196 148 180 219 152 153 124 123 130 131 139 140 144 152 167 174 189 201 210 217 220 228 233 237 241 246 249 250 250 250 252 251
104 119 121 359 169 174 180 187 184 207 202 193 152 214 200 190 166 155 129 113 127 133 132 122 121 122 131 173 207 212 218 227 227 237 245 247 249 250 252 254 252 251 249 246
171 160 118 26 55 154 174 182 192 218 210 223 152 197 276 181 168 169 173 127 130 142 141 111 110 132 92 354 267 246 245 251 249 246 247 249 249 249 251 252 252 251 250 247
151 129 121 108 74 88 348 196 194 209 205 206 203 171 178 209 189 190 187 195 200 174 209 219 227 263 249 263 252 245 248 252 258 254 247 245 247 248 250 248 249 247 244 242
114 127 88 150 131 184 243 189 200 206 213 209 216 189 190 210 231 234 233 218 209 250 248 245 258 246 229 245 250 246 246 253 263 255 250 252 253 253 252 250 249 246 245 241
98 86 75 125 236 302 267 225 186 179 229 212 217 213 214 193 199 235 239 252 253 239 237 242 247 246 249 248 246 250 257 262 264 263 259 258 258 258 259 258 256 253 252 247
89 88 93 148 172 214 191 193 175 87 256 196 201 199 191 160 196 224 228 230 223 227 231 238 248 261 267 266 263 258 254 252 253 255 255 257 259 262 266 270 269 266 255 253
160 161 180 186 215 273 228 169 137 160 262 198 192 196 188 190 214 192 200 190 185 186 195 217 224 225 232 238 244 248 252 256 260 264 265 264 265 265 263 259 262 264 258 256
160 156 188 195 214 248 158 155 168 186 151 169 183 186 175 168 154 152 159 158 160 165 162 177 201 202 256 261 245 245 250 261 269 275 275 276 277 279 276 269 264 260 261 261
166 181 165 190 189 241 161 167 197 183 151 143 157 168 181 159 154 163 158 153 144 136 127 115 108 98 91 83 78 77 83 28 343 317 307 304 301 298 292 283 274 267 265 264
269 152 143 105 228 152 165 133 150 161 154 148 152 157 168 161 158 149 145 137 135 125 121 115 110 100 89 82 76 69 62 49 35 21 4 347 333 319 307 295 285 279 276 273
192 139 144 79 20 84 117 156 156 141 146 144 149 152 154 155 145 145 140 138 135 130 123 119 109 97 84 73 63 59 50 41 24 13 4 355 352 336 325 312 306 301 291 278
357 35 180 164 347 244 124 157 157 147 141 143 154 142 141 149 144 145 137 134 131 128 121 116 106 97 87 72 57 46 38 28 17 6 3 357 353 348 342 335 330 317 301 289